RAVAN

Last updated on Mon Sep 21 2026 00:03:44 GMT+0000 (Coordinated Universal Time)

1 41849U 16067B 26263.25092207 .00071774 00000+0 70831-3 0 9999 2 41849 97.9709 164.5041 0004787 60.5739 299.5996 15.65685928542517
UTC large
Height (km)
Speed (km/s)
/
Latitude / Longitude
Inclination (degrees)
Orbital Period (minutes)
Azimuth
Elevation
Range (km)
Doppler Factor

Next 0 passes for location: London (51.5072 / 0.1276)

No passes found over London.
RAVAN